Flag for Finland Weather past 2 weeks in Ivalo, Finland

Now
61 °F

More clouds than sun.


Feels Like: 61 °F
Forecast: 54 / 60 °F
Wind: 7 mph from Southeast

Location: Ivalo

Current Time: Jul 28, 2015 at 11:44:41 AM

Latest Report: Jul 28, 2015 at 10:50 AM


Visibility: N/A

Pressure: 29.71 "Hg

Humidity: 77%

Dew point: 54 °F

Location of IvaloLocation

Historic Weather in Ivalo — Graph

°F

Ivalo temperature yesterday

Maximum temperature yesterday: 54 °F (at 12:50 AM)
Minimum temperature yesterday: 50 °F (at 6:50 AM)
Average temperature yesterday: 51 °F

Past Weeks' High & Low Weather Summary

 TemperatureHumidityPressure
High66 °F (Jul 18, 2:20 PM)100% (Jul 14, 2:20 AM)29.98 "Hg (Jul 14, 2:20 AM)
Low39 °F (Jul 18, 3:20 AM)40% (Jul 24, 3:50 PM)29.50 "Hg (Jul 19, 10:20 AM)
Average52 °F79%29.74 "Hg
* Reported Jul 13 10:20 AM — Jul 28 10:20 AM, Ivalo, Weather by CustomWeather, © 2015

Note: Actual official high and low records may vary slightly from our data, if they occured in-between our weather recording intervals... More about our weather records

Advertising

Ivalo weather history for previous 24 hours

 ConditionsComfort  
Time TempWeatherWind HumidityBarometerVisibility
10:20 AM
Tue, Jul 28
59 °FMostly cloudy.8 mph82%29.71 "HgN/A
9:50 AM59 °FMostly cloudy.5 mph82%29.71 "HgN/A
9:20 AM59 °FBroken clouds.6 mph82%29.71 "HgN/A
8:50 AM57 °FPartly sunny.5 mph88%29.71 "HgN/A
8:20 AM57 °FMostly cloudy.7 mph88%29.71 "HgN/A
7:50 AM57 °FOvercast.8 mph82%29.71 "HgN/A
7:20 AM55 °FLow clouds.1 mph88%29.71 "HgN/A
6:50 AM54 °FLow clouds.5 mph94%29.68 "HgN/A
6:20 AM54 °FLow clouds.5 mph94%29.68 "HgN/A
5:50 AM54 °FLow clouds.5 mph94%29.68 "HgN/A
5:20 AM54 °FLow clouds.1 mph94%29.68 "HgN/A
4:50 AM52 °FLow clouds.6 mph94%29.68 "HgN/A
4:20 AM52 °FOvercast.5 mph94%29.68 "HgN/A
3:50 AM52 °FLow clouds.3 mph94%29.68 "HgN/A
3:20 AM52 °FOvercast.3 mph94%29.68 "HgN/A
2:50 AM52 °FOvercast.5 mph94%29.68 "HgN/A
2:20 AM52 °FOvercast.6 mph94%29.68 "HgN/A
1:50 AM52 °FOvercast.5 mph94%29.68 "HgN/A
1:20 AM52 °FOvercast.5 mph94%29.68 "HgN/A
12:50 AM52 °FOvercast.1 mph94%29.65 "HgN/A
12:20 AM52 °FOvercast.2 mph94%29.65 "HgN/A
11:50 PM
Mon, Jul 27
52 °FSprinkles. Overcast.5 mph94%29.65 "HgN/A
11:20 PM52 °FLight rain. Overcast.6 mph94%29.65 "HgN/A
10:50 PM52 °FOvercast.7 mph94%29.65 "HgN/A
10:20 PM52 °FOvercast.5 mph94%29.65 "HgN/A
9:50 PM52 °FOvercast.3 mph94%29.62 "HgN/A
9:20 PM52 °FOvercast.6 mph94%29.62 "HgN/A
8:50 PM52 °FOvercast.6 mph88%29.62 "HgN/A
8:20 PM52 °FOvercast.5 mph88%29.62 "HgN/A
7:50 PM52 °FOvercast.8 mph88%29.65 "HgN/A
7:20 PM52 °FOvercast.9 mph94%29.65 "HgN/A
6:50 PM52 °FSprinkles. Overcast.9 mph88%29.65 "HgN/A
6:20 PM52 °FSprinkles. Overcast.10 mph88%29.65 "Hg3 mi
5:50 PM52 °FOvercast.9 mph94%29.68 "HgN/A
5:20 PM52 °FLight rain. Overcast.9 mph88%29.68 "HgN/A
4:50 PM52 °FRain. Overcast.10 mph88%29.68 "HgN/A
4:20 PM50 °FRain. Low clouds.9 mph94%29.68 "Hg6 mi
3:50 PM52 °FRain. Low clouds.9 mph88%29.68 "Hg6 mi
3:20 PM50 °FRain. Overcast.9 mph94%29.71 "Hg5 mi
2:50 PM50 °FRain. Overcast.10 mph94%29.71 "Hg6 mi
2:20 PM50 °FLight rain. Overcast.10 mph94%29.71 "HgN/A
1:50 PM50 °FLight rain. More clouds than sun.8 mph94%29.71 "HgN/A
1:20 PM50 °FLight rain. Mostly cloudy.9 mph94%29.71 "HgN/A
12:50 PM50 °FLight rain. Overcast.8 mph94%29.74 "Hg5 mi
12:20 PM50 °FLight rain. Partly sunny.8 mph94%29.74 "Hg5 mi
11:50 AM50 °FLight rain. Partly sunny.8 mph94%29.74 "Hg5 mi
11:20 AM50 °FLight rain. Mostly cloudy.9 mph88%29.74 "Hg5 mi
Weather by CustomWeather, © 2015

See weather overviewHow to use our weather pages